QPF
0.06 0.08 0.08 0.07 0.05 0.05 0.05 0.06 0.10 0.09 0.08 0.08 0.07 0.06 0.07 0.07 0.08 0.07 0.06 0.04 0.02 0.01 0.01 0.01 0.01 0.01 0.01 0.01 0.02 0.02 0.03 0.05 0.07 0.09 0.10 0.12 0.12 0.13
0.06 0.06 0.06 0.06 0.05 0.05 0.05 0.05 0.07 0.06 0.06 0.07 0.07 0.05 0.05 0.05 0.07 0.06 0.05 0.04 0.02 0.01 0.01 0.02 0.01 0.01 0.01 0.01 0.01 0.02 0.03 0.05 0.06 0.05 0.04 0.05 0.07 0.09
0.05 0.05 0.05 0.06 0.07 0.06 0.06 0.06 0.06 0.07 0.08 0.08 0.07 0.04 0.04 0.04 0.05 0.05 0.04 0.04 0.03 0.02 0.02 0.02 0.01 0.01 0.01 0.02 0.02 0.03 0.04 0.04 0.04 0.04 0.03 0.03 0.04 0.04
0.05 0.07 0.06 0.07 0.07 0.07 0.08 0.07 0.06 0.06 0.07 0.07 0.07 0.05 0.04 0.05 0.05 0.04 0.03 0.04 0.04 0.03 0.02 0.02 0.02 0.03 0.03 0.02 0.02 0.02 0.02 0.03 0.03 0.03 0.03 0.03 0.04 0.05
0.06 0.06 0.07 0.08 0.07 0.08 0.07 0.06 0.05 0.05 0.06 0.07 0.07 0.06 0.05 0.05 0.05 0.04 0.03 0.04 0.04 0.02 0.03 0.02 0.02 0.02 0.01 0.01 0.01 0.01 0.01 0.02 0.02 0.02 0.02 0.03 0.02 0.03
0.07 0.07 0.07 0.07 0.07 0.08 0.08 0.07 0.06 0.06 0.07 0.07 0.06 0.06 0.06 0.06 0.07 0.04 0.04 0.05 0.04 0.02 0.03 0.03 0.03 0.02 0.02 0.01 0.01 0.01 0.01 0.01 0.01 0.02 0.02 0.03 0.02 0.02
0.07 0.06 0.05 0.05 0.06 0.06 0.05 0.07 0.08 0.08 0.07 0.07 0.08 0.09 0.08 0.07 0.05 0.04 0.04 0.04 0.05 0.05 0.04 0.04 0.04 0.04 0.04 0.03 0.02 0.01 0.00 0.00 0.01 0.01 0.01 0.02 0.03 0.03
0.06 0.06 0.04 0.04 0.04 0.03 0.03 0.04 0.06 0.07 0.07 0.09 0.09 0.08 0.07 0.06 0.05 0.04 0.05 0.05 0.05 0.05 0.06 0.05 0.05 0.05 0.05 0.05 0.04 0.03 0.02 0.01 0.01 0.01 0.01 0.02 0.02 0.03
0.06 0.05 0.03 0.02 0.03 0.04 0.03 0.03 0.03 0.02 0.03 0.06 0.06 0.05 0.07 0.07 0.08 0.07 0.07 0.07 0.07 0.07 0.08 0.06 0.08 0.07 0.05 0.05 0.04 0.04 0.05 0.04 0.02 0.02 0.01 0.02 0.02 0.03
0.05 0.05 0.06 0.05 0.04 0.05 0.04 0.04 0.03 0.03 0.03 0.04 0.03 0.05 0.06 0.08 0.08 0.08 0.09 0.09 0.09 0.08 0.08 0.06 0.05 0.05 0.05 0.05 0.04 0.03 0.02 0.02 0.02 0.02 0.01 0.01 0.01 0.02
0.05 0.05 0.05 0.05 0.04 0.03 0.04 0.04 0.04 0.04 0.04 0.04 0.03 0.04 0.05 0.05 0.06 0.07 0.08 0.08 0.08 0.09 0.10 0.08 0.05 0.05 0.05 0.06 0.04 0.04 0.02 0.02 0.01 0.01 0.02 0.02 0.02 0.03
0.06 0.05 0.04 0.04 0.03 0.03 0.03 0.04 0.04 0.04 0.06 0.05 0.04 0.03 0.03 0.04 0.06 0.06 0.08 0.10 0.10 0.11 0.10 0.09 0.08 0.07 0.06 0.06 0.04 0.04 0.03 0.03 0.02 0.02 0.02 0.02 0.02 0.02
0.06 0.05 0.04 0.03 0.02 0.03 0.04 0.03 0.03 0.05 0.07 0.07 0.06 0.07 0.08 0.09 0.08 0.08 0.10 0.12 0.12 0.10 0.10 0.10 0.08 0.08 0.07 0.06 0.05 0.05 0.05 0.04 0.02 0.02 0.02 0.02 0.02 0.02
0.06 0.07 0.06 0.04 0.03 0.02 0.02 0.02 0.03 0.04 0.05 0.07 0.07 0.08 0.09 0.09 0.08 0.08 0.09 0.09 0.09 0.09 0.11 0.12 0.11 0.09 0.08 0.06 0.06 0.06 0.05 0.05 0.05 0.04 0.03 0.03 0.03 0.02
0.05 0.05 0.05 0.04 0.03 0.02 0.02 0.03 0.03 0.03 0.03 0.04 0.05 0.05 0.05 0.05 0.05 0.05 0.05 0.05 0.05 0.06 0.08 0.09 0.10 0.10 0.10 0.07 0.05 0.05 0.06 0.06 0.05 0.04 0.04 0.03 0.03 0.03
0.03 0.03 0.03 0.03 0.02 0.02 0.02 0.02 0.02 0.02 0.02 0.03 0.04 0.04 0.05 0.04 0.04 0.04 0.04 0.04 0.04 0.04 0.05 0.07 0.08 0.09 0.10 0.10 0.09 0.08 0.07 0.07 0.06 0.05 0.05 0.04 0.04 0.03
0.02 0.02 0.01 0.01 0.02 0.02 0.02 0.02 0.03 0.03 0.02 0.03 0.04 0.04 0.04 0.03 0.03 0.04 0.05 0.05 0.05 0.05 0.06 0.08 0.08 0.09 0.11 0.12 0.13 0.11 0.10 0.09 0.09 0.08 0.07 0.06 0.05 0.04
0.03 0.02 0.02 0.02 0.02 0.02 0.02 0.02 0.03 0.03 0.03 0.03 0.04 0.05 0.04 0.03 0.03 0.04 0.04 0.04 0.04 0.04 0.05 0.06 0.07 0.08 0.10 0.12 0.12 0.11 0.11 0.10 0.10 0.10 0.09 0.06 0.05 0.04
0.05 0.04 0.04 0.04 0.04 0.04 0.03 0.03 0.03 0.03 0.04 0.04 0.06 0.07 0.07 0.05 0.04 0.03 0.04 0.03 0.03 0.03 0.04 0.05 0.06 0.06 0.06 0.07 0.07 0.07 0.07 0.08 0.08 0.08 0.09 0.09 0.09 0.08
0.07 0.07 0.06 0.06 0.05 0.04 0.04 0.04 0.04 0.05 0.05 0.06 0.07 0.06 0.04 0.04 0.03 0.03 0.04 0.04 0.03 0.04 0.04 0.05 0.04 0.04 0.05 0.05 0.06 0.05 0.05 0.06 0.07 0.07 0.07 0.07 0.08 0.09
0.09 0.09 0.07 0.06 0.05 0.04 0.04 0.05 0.06 0.06 0.06 0.05 0.05 0.05 0.04 0.03 0.03 0.03 0.03 0.03 0.04 0.04 0.04 0.04 0.04 0.06 0.06 0.06 0.07 0.06 0.06 0.06 0.06 0.05 0.05 0.05 0.06 0.06
0.06 0.07 0.07 0.06 0.06 0.05 0.04 0.04 0.04 0.06 0.06 0.05 0.04 0.03 0.03 0.03 0.03 0.02 0.02 0.02 0.03 0.03 0.03 0.03 0.04 0.05 0.05 0.05 0.04 0.04 0.05 0.05 0.04 0.03 0.03 0.03 0.04 0.05
0.02 0.03 0.03 0.04 0.04 0.06 0.05 0.05 0.05 0.05 0.04 0.05 0.04 0.03 0.02 0.02 0.02 0.02 0.02 0.02 0.02 0.02 0.02 0.03 0.03 0.03 0.03 0.02 0.02 0.03 0.03 0.04 0.04 0.04 0.04 0.02 0.02 0.02
MSLP
1011.79 1012.04 1012.28 1012.52 1012.75 1012.97 1013.17 1013.34 1013.48 1013.61 1013.72 1013.83 1013.94 1014.05 1014.18 1014.34 1014.53 1014.76 1015.04 1015.36 1015.74 1016.18 1016.65 1017.15 1017.67 1018.19 1018.70 1019.19 1019.64 1020.06 1020.44 1020.77 1021.07 1021.33 1021.54 1021.72 1021.85 1021.95
1011.18 1011.42 1011.66 1011.91 1012.16 1012.41 1012.67 1012.91 1013.15 1013.38 1013.60 1013.81 1014.01 1014.21 1014.41 1014.62 1014.84 1015.10 1015.39 1015.72 1016.09 1016.51 1016.97 1017.45 1017.94 1018.44 1018.92 1019.39 1019.83 1020.23 1020.61 1020.96 1021.27 1021.54 1021.78 1021.97 1022.11 1022.20
1010.57 1010.81 1011.05 1011.30 1011.57 1011.84 1012.13 1012.43 1012.73 1013.04 1013.35 1013.66 1013.96 1014.26 1014.54 1014.83 1015.12 1015.43 1015.75 1016.10 1016.49 1016.89 1017.32 1017.77 1018.22 1018.67 1019.11 1019.53 1019.94 1020.33 1020.70 1021.06 1021.39 1021.69 1021.96 1022.19 1022.36 1022.47
1009.96 1010.21 1010.45 1010.70 1010.97 1011.25 1011.55 1011.88 1012.22 1012.59 1012.97 1013.36 1013.75 1014.15 1014.53 1014.91 1015.29 1015.66 1016.04 1016.43 1016.83 1017.23 1017.64 1018.05 1018.45 1018.84 1019.23 1019.60 1019.97 1020.34 1020.71 1021.07 1021.43 1021.78 1022.09 1022.37 1022.59 1022.75
1009.36 1009.60 1009.84 1010.09 1010.35 1010.62 1010.93 1011.26 1011.62 1012.02 1012.45 1012.90 1013.37 1013.85 1014.33 1014.81 1015.27 1015.73 1016.17 1016.61 1017.03 1017.44 1017.83 1018.21 1018.57 1018.91 1019.24 1019.58 1019.91 1020.26 1020.63 1021.02 1021.41 1021.80 1022.17 1022.50 1022.78 1022.99
1008.75 1008.98 1009.22 1009.45 1009.70 1009.95 1010.24 1010.56 1010.92 1011.33 1011.79 1012.29 1012.82 1013.37 1013.93 1014.48 1015.03 1015.56 1016.07 1016.56 1017.01 1017.43 1017.82 1018.18 1018.51 1018.83 1019.13 1019.44 1019.76 1020.11 1020.49 1020.90 1021.33 1021.76 1022.18 1022.57 1022.90 1023.16
1008.14 1008.35 1008.57 1008.78 1009.00 1009.23 1009.49 1009.79 1010.14 1010.55 1011.02 1011.54 1012.11 1012.71 1013.33 1013.95 1014.56 1015.15 1015.71 1016.23 1016.72 1017.16 1017.55 1017.92 1018.25 1018.56 1018.86 1019.18 1019.52 1019.89 1020.29 1020.74 1021.20 1021.68 1022.14 1022.56 1022.93 1023.24
1007.56 1007.73 1007.91 1008.09 1008.27 1008.48 1008.71 1008.99 1009.33 1009.73 1010.19 1010.72 1011.30 1011.92 1012.57 1013.22 1013.86 1014.48 1015.07 1015.62 1016.13 1016.59 1017.01 1017.40 1017.75 1018.10 1018.44 1018.79 1019.18 1019.59 1020.05 1020.53 1021.04 1021.55 1022.04 1022.49 1022.88 1023.20
1007.03 1007.15 1007.28 1007.42 1007.57 1007.74 1007.95 1008.21 1008.52 1008.91 1009.36 1009.88 1010.45 1011.07 1011.71 1012.36 1013.00 1013.62 1014.21 1014.77 1015.29 1015.77 1016.22 1016.64 1017.05 1017.45 1017.86 1018.29 1018.75 1019.24 1019.76 1020.30 1020.84 1021.38 1021.89 1022.34 1022.74 1023.06
1006.62 1006.67 1006.75 1006.83 1006.94 1007.08 1007.26 1007.49 1007.78 1008.15 1008.58 1009.08 1009.63 1010.22 1010.82 1011.44 1012.04 1012.63 1013.20 1013.74 1014.25 1014.74 1015.22 1015.69 1016.17 1016.65 1017.15 1017.68 1018.24 1018.82 1019.41 1020.02 1020.61 1021.17 1021.68 1022.13 1022.51 1022.81
1006.35 1006.34 1006.35 1006.39 1006.45 1006.54 1006.69 1006.89 1007.16 1007.50 1007.91 1008.37 1008.88 1009.42 1009.97 1010.53 1011.07 1011.61 1012.12 1012.63 1013.12 1013.62 1014.12 1014.64 1015.18 1015.76 1016.36 1017.00 1017.66 1018.33 1019.01 1019.67 1020.30 1020.89 1021.40 1021.84 1022.20 1022.49
1006.24 1006.17 1006.12 1006.10 1006.11 1006.16 1006.27 1006.44 1006.67 1006.98 1007.34 1007.76 1008.22 1008.70 1009.19 1009.68 1010.15 1010.62 1011.08 1011.54 1012.01 1012.50 1013.02 1013.58 1014.19 1014.84 1015.54 1016.27 1017.03 1017.78 1018.54 1019.25 1019.92 1020.52 1021.04 1021.47 1021.82 1022.09
1006.29 1006.17 1006.06 1005.97 1005.92 1005.92 1005.98 1006.10 1006.30 1006.56 1006.88 1007.25 1007.65 1008.07 1008.49 1008.91 1009.32 1009.73 1010.13 1010.55 1010.99 1011.48 1012.01 1012.60 1013.26 1013.97 1014.73 1015.53 1016.36 1017.18 1017.98 1018.74 1019.43 1020.05 1020.57 1021.00 1021.35 1021.62
1006.43 1006.26 1006.09 1005.95 1005.83 1005.77 1005.77 1005.84 1005.98 1006.19 1006.46 1006.78 1007.13 1007.49 1007.86 1008.22 1008.59 1008.95 1009.31 1009.70 1010.13 1010.61 1011.15 1011.76 1012.44 1013.18 1013.98 1014.82 1015.68 1016.53 1017.36 1018.13 1018.84 1019.46 1019.99 1020.43 1020.79 1021.08
1006.57 1006.36 1006.15 1005.95 1005.77 1005.64 1005.57 1005.58 1005.66 1005.81 1006.02 1006.29 1006.59 1006.91 1007.25 1007.58 1007.92 1008.26 1008.62 1009.01 1009.44 1009.92 1010.47 1011.09 1011.78 1012.53 1013.33 1014.17 1015.02 1015.86 1016.68 1017.44 1018.15 1018.77 1019.32 1019.78 1020.17 1020.50
1006.61 1006.38 1006.12 1005.86 1005.63 1005.43 1005.30 1005.23 1005.25 1005.34 1005.50 1005.72 1005.98 1006.28 1006.60 1006.94 1007.28 1007.64 1008.03 1008.44 1008.90 1009.41 1009.97 1010.60 1011.28 1012.01 1012.79 1013.59 1014.40 1015.20 1015.97 1016.71 1017.40 1018.02 1018.58 1019.08 1019.51 1019.90
1006.47 1006.21 1005.92 1005.62 1005.33 1005.07 1004.87 1004.74 1004.69 1004.73 1004.84 1005.02 1005.26 1005.55 1005.88 1006.24 1006.62 1007.04 1007.48 1007.95 1008.46 1009.01 1009.60 1010.24 1010.91 1011.62 1012.35 1013.09 1013.84 1014.58 1015.29 1015.99 1016.65 1017.27 1017.84 1018.38 1018.87 1019.32
1006.06 1005.79 1005.47 1005.14 1004.81 1004.51 1004.26 1004.07 1003.98 1003.96 1004.03 1004.19 1004.42 1004.72 1005.07 1005.47 1005.92 1006.40 1006.92 1007.47 1008.06 1008.67 1009.31 1009.97 1010.65 1011.33 1012.01 1012.69 1013.36 1014.03 1014.68 1015.32 1015.95 1016.57 1017.17 1017.74 1018.30 1018.83
1005.38 1005.10 1004.77 1004.42 1004.07 1003.74 1003.46 1003.24 1003.11 1003.07 1003.11 1003.25 1003.48 1003.79 1004.18 1004.63 1005.15 1005.71 1006.32 1006.97 1007.65 1008.34 1009.04 1009.73 1010.41 1011.08 1011.73 1012.35 1012.97 1013.57 1014.16 1014.76 1015.37 1015.98 1016.60 1017.23 1017.85 1018.46
1004.47 1004.18 1003.84 1003.49 1003.13 1002.80 1002.51 1002.29 1002.15 1002.09 1002.12 1002.26 1002.49 1002.82 1003.24 1003.74 1004.32 1004.97 1005.67 1006.41 1007.18 1007.95 1008.72 1009.46 1010.17 1010.84 1011.47 1012.07 1012.64 1013.19 1013.75 1014.32 1014.91 1015.53 1016.18 1016.85 1017.54 1018.21
1003.38 1003.07 1002.74 1002.40 1002.06 1001.75 1001.48 1001.27 1001.13 1001.08 1001.12 1001.26 1001.50 1001.84 1002.29 1002.83 1003.47 1004.18 1004.95 1005.78 1006.63 1007.49 1008.32 1009.12 1009.87 1010.57 1011.21 1011.79 1012.34 1012.88 1013.42 1013.97 1014.57 1015.20 1015.88 1016.60 1017.33 1018.07
1002.19 1001.87 1001.54 1001.21 1000.90 1000.63 1000.40 1000.23 1000.12 1000.10 1000.15 1000.30 1000.55 1000.91 1001.37 1001.94 1002.61 1003.37 1004.20 1005.09 1006.01 1006.94 1007.84 1008.70 1009.50 1010.23 1010.89 1011.49 1012.05 1012.59 1013.13 1013.69 1014.29 1014.95 1015.65 1016.40 1017.18 1017.97
1000.96 1000.62 1000.30 999.99 999.72 999.49 999.31 999.19 999.13 999.14 999.23 999.40 999.67 1000.04 1000.51 1001.10 1001.78 1002.57 1003.44 1004.37 1005.34 1006.32 1007.27 1008.18 1009.03 1009.81 1010.51 1011.14 1011.72 1012.27 1012.82 1013.40 1014.02 1014.69 1015.42 1016.20 1017.00 1017.81
Thickness
5763 5761 5759 5759 5759 5758 5756 5752 5743 5735 5738 5745 5747 5750 5750 5748 5746 5745 5743 5741 5739 5738 5736 5734 5732 5730 5729 5727 5726 5724 5723 5721 5719 5718 5716 5715 5713 5712
5762 5760 5758 5758 5757 5757 5755 5753 5749 5743 5737 5743 5744 5747 5746 5745 5742 5741 5740 5738 5735 5734 5733 5731 5729 5727 5725 5723 5721 5720 5718 5716 5715 5713 5712 5711 5709 5708
5759 5758 5756 5755 5753 5753 5753 5751 5748 5745 5738 5740 5743 5743 5741 5740 5737 5736 5735 5733 5731 5730 5728 5727 5725 5723 5721 5719 5717 5715 5713 5712 5710 5709 5708 5706 5704 5703
5756 5755 5753 5753 5750 5749 5748 5746 5745 5744 5740 5735 5737 5738 5736 5736 5733 5732 5731 5729 5728 5726 5725 5723 5720 5718 5716 5714 5712 5710 5708 5707 5705 5704 5703 5701 5699 5698
5755 5752 5751 5748 5746 5745 5744 5742 5742 5743 5741 5736 5734 5735 5733 5732 5728 5727 5726 5725 5724 5722 5720 5718 5716 5713 5711 5709 5706 5704 5702 5701 5700 5699 5697 5696 5694 5692
5752 5750 5748 5745 5743 5742 5740 5739 5738 5736 5735 5733 5730 5729 5728 5727 5723 5719 5718 5720 5719 5719 5716 5713 5711 5709 5706 5704 5701 5699 5697 5695 5694 5693 5691 5690 5688 5685
5748 5746 5745 5743 5741 5739 5738 5735 5734 5731 5729 5727 5724 5723 5721 5719 5716 5716 5714 5715 5714 5714 5711 5709 5707 5703 5700 5698 5696 5694 5692 5690 5688 5686 5684 5683 5681 5679
5741 5741 5740 5739 5737 5735 5733 5731 5729 5726 5723 5721 5719 5717 5716 5716 5715 5713 5710 5707 5705 5708 5706 5704 5703 5699 5697 5695 5692 5690 5687 5685 5683 5680 5678 5676 5674 5672
5735 5734 5734 5735 5732 5730 5728 5726 5725 5723 5721 5718 5714 5713 5713 5712 5709 5706 5705 5703 5701 5704 5701 5698 5699 5695 5694 5691 5688 5685 5682 5680 5677 5674 5671 5669 5667 5665
5730 5729 5727 5726 5725 5723 5722 5720 5719 5718 5717 5714 5712 5712 5711 5709 5706 5703 5701 5700 5700 5700 5697 5691 5692 5690 5690 5686 5684 5680 5677 5674 5671 5668 5666 5663 5660 5658
5723 5722 5721 5718 5717 5716 5714 5713 5711 5711 5711 5710 5709 5708 5706 5704 5702 5698 5694 5690 5688 5689 5690 5685 5684 5683 5681 5679 5677 5674 5671 5668 5665 5662 5658 5656 5653 5650
5714 5713 5711 5710 5708 5707 5706 5704 5702 5702 5702 5702 5701 5700 5699 5698 5695 5691 5688 5683 5681 5680 5682 5678 5676 5673 5670 5671 5669 5666 5663 5660 5657 5653 5650 5647 5644 5641
5704 5703 5702 5701 5699 5698 5697 5696 5695 5694 5694 5694 5693 5692 5692 5690 5688 5685 5683 5679 5675 5673 5675 5672 5668 5665 5662 5661 5661 5659 5656 5653 5648 5645 5642 5639 5636 5633
5694 5694 5693 5691 5690 5689 5688 5688 5687 5685 5686 5686 5685 5684 5683 5682 5681 5679 5677 5675 5673 5670 5669 5666 5662 5658 5654 5651 5651 5650 5648 5646 5642 5638 5634 5630 5627 5624
5684 5683 5682 5681 5680 5679 5679 5679 5678 5677 5677 5676 5675 5675 5676 5675 5673 5671 5669 5667 5665 5664 5662 5659 5656 5653 5649 5645 5643 5642 5639 5637 5634 5630 5626 5622 5618 5616
5674 5673 5671 5670 5670 5671 5671 5670 5670 5670 5669 5668 5667 5667 5667 5665 5663 5661 5658 5656 5654 5653 5653 5650 5649 5646 5642 5639 5636 5632 5631 5628 5625 5622 5618 5614 5611 5608
5663 5663 5662 5661 5661 5661 5662 5661 5661 5660 5659 5658 5657 5656 5655 5654 5652 5652 5649 5646 5643 5642 5640 5639 5639 5637 5635 5631 5627 5624 5622 5619 5617 5613 5609 5605 5603 5600
5653 5655 5654 5653 5653 5652 5651 5651 5650 5649 5649 5648 5647 5646 5645 5643 5642 5641 5639 5637 5634 5632 5631 5629 5627 5624 5621 5620 5619 5616 5613 5610 5607 5604 5601 5597 5594 5592
5644 5646 5645 5644 5644 5644 5643 5642 5641 5640 5639 5638 5637 5636 5635 5633 5631 5630 5628 5626 5624 5623 5622 5620 5618 5613 5609 5607 5608 5607 5604 5601 5598 5595 5592 5590 5587 5584
5635 5636 5635 5635 5634 5634 5634 5633 5632 5630 5628 5627 5627 5626 5625 5623 5622 5620 5619 5616 5614 5613 5612 5611 5608 5605 5603 5600 5598 5597 5596 5594 5590 5587 5584 5582 5578 5575
5626 5626 5625 5624 5624 5624 5623 5622 5620 5619 5618 5617 5616 5615 5614 5613 5612 5611 5609 5606 5604 5603 5601 5600 5599 5598 5596 5592 5588 5587 5586 5584 5583 5579 5576 5572 5568 5565
5616 5616 5614 5613 5613 5612 5612 5611 5609 5608 5607 5606 5606 5605 5604 5604 5602 5601 5600 5598 5596 5595 5594 5593 5592 5589 5585 5582 5580 5579 5577 5574 5572 5570 5567 5565 5561 5557
5606 5605 5604 5604 5603 5601 5601 5600 5599 5597 5596 5595 5594 5593 5593 5592 5592 5591 5590 5589 5587 5585 5584 5582 5580 5579 5577 5575 5573 5571 5569 5566 5564 5560 5558 5556 5554 5551